Amendola, Italy

3:12 PM CEST on August 18, 2017 (GMT +0200)
Amendola Mil

Weather History for LIBA - October, 2013

Change the Weather History Date:

Tuesday, October 8, 2013

  Actual Average Record
Temperature  
Mean Temperature 63 °F -  
Max Temperature 73 °F 69 °F 89 °F (2001)
Min Temperature 53 °F 51 °F 46 °F (2003)
Degree Days  
Heating Degree Days 2    
Growing Degree Days 13 (Base 50)    
Moisture  
Dew Point 57 °F    
Average Humidity 73    
Maximum Humidity 94    
Minimum Humidity 35    
Precipitation  
Precipitation 0.00 in 0.07 in - ()
Sea Level Pressure  
Sea Level Pressure 30.10 in    
Wind  
Wind Speed 3 mph ()    
Max Wind Speed 14 mph    
Max Gust Speed 21 mph    
Visibility 4.7 miles    
Events Fog , Rain , Thunderstorm    
Averages and records for this station are not official NWS values.
T = Trace of Precipitation, MM = Missing Value Source: Averaged Metar Reports

Daily Weather History Graph

Daily Weather History Graph

Search for Another Location

Airport or City:

Trip Planner

Search our weather history database for the weather conditions in past years. The results will help you decide how hot, cold, wet, or windy it might be!

Date:

Astronomy

Oct. 08, 2013 Rise Set
Actual Time 7:01 AM CEST 6:27 PM CEST
Civil Twilight 6:33 AM CEST 6:54 PM CEST
Nautical Twilight 6:01 AM CEST 7:26 PM CEST
Astronomical Twilight 5:29 AM CEST 7:59 PM CEST
Moon 10:39 AM CEST (10/8) 8:45 PM CEST (10/8)
Length of Visible Light 12h 21m
Length of Day
11h 25m
Waxing Crescent, 14% of the Moon is Illuminated
Oct 8
Waxing Crescent
Oct 12
First Quarter
Oct 19
Full
Oct 27
Last Quarter
Nov 3
New

Hourly Weather History & Observations

Time (CEST) Temp. Dew Point Humidity Pressure Visibility Wind Dir Wind Speed Gust Speed Precip Events Conditions
6:55 AM 62.6 °F 57.2 °F 82% 30.09 in 3.7 mi Calm Calm - N/A   Partly Cloudy
7:55 AM 60.8 °F 55.4 °F 82% 30.09 in 2.5 mi WNW 1.2 mph - N/A Fog Patches of Fog
8:00 AM 61 °F 55 °F 75% 30.10 in 2 mi Calm Calm - -  
8:55 AM 59.0 °F 53.6 °F 82% 30.09 in 2.5 mi Calm Calm - N/A Fog Patches of Fog
9:39 AM 59.0 °F 53.6 °F 82% 30.09 in 0.2 mi SSW 2.3 mph - N/A Fog Fog
9:55 AM 59.0 °F 53.6 °F 82% 30.12 in 3.7 mi WSW 1.2 mph - N/A   Partly Cloudy
10:27 AM 59.0 °F 53.6 °F 82% 30.12 in 4.3 mi Calm Calm - N/A   Partly Cloudy
10:55 AM 66.2 °F 59.0 °F 78% 30.12 in 5.0 mi NW 1.2 mph - N/A   Partly Cloudy
11:00 AM 65 °F 60 °F 78% 30.13 in 5 mi NW 1.2 mph - -   Mist
11:55 AM 69.8 °F 57.2 °F 64% 30.12 in 6.2 mi NW 1.2 mph - N/A   Partly Cloudy
1:55 PM 73.4 °F 51.8 °F 47% 30.09 in 6.2 mi NE 3.5 mph - N/A   Partly Cloudy
2:00 PM 73 °F 51 °F 35% 30.09 in 9 mi NE 3.5 mph - -  
2:55 PM 73.4 °F 59.0 °F 61% 30.09 in 6.2 mi ENE 8.1 mph - N/A   Scattered Clouds
3:55 PM 73.4 °F 53.6 °F 50% 30.09 in 6.2 mi East 8.1 mph - N/A   Partly Cloudy
4:09 PM 73.4 °F 55.4 °F 53% 30.09 in 6.2 mi ENE 10.4 mph - N/A Thunderstorm Thunderstorm
4:55 PM 69.8 °F 57.2 °F 64% 30.09 in 6.2 mi ENE 10.4 mph - N/A   Partly Cloudy
5:00 PM 69 °F 57 °F 57% 30.09 in 6 mi ENE 10.4 mph - - Thunderstorm Light Thunderstorm
5:55 PM 69.8 °F 62.6 °F 78% 30.09 in 6.2 mi ENE 12.7 mph - N/A   Partly Cloudy
6:18 PM 69.8 °F 62.6 °F 78% 30.09 in 5.0 mi ENE 13.8 mph - N/A Rain , Thunderstorm Light Thunderstorms and Rain
6:55 PM 66.2 °F 64.4 °F 94% 30.09 in 4.3 mi NNW 8.1 mph - N/A Rain , Thunderstorm Light Thunderstorms and Rain
7:11 PM 66.2 °F 64.4 °F 94% 30.09 in 2.2 mi North 9.2 mph 20.7 mph N/A Rain , Thunderstorm Thunderstorms and Rain
7:55 PM 53.6 °F 51.8 °F 94% 30.09 in 5.0 mi NNW 5.8 mph - N/A Thunderstorm Thunderstorm
8:00 PM 54 °F 52 °F 92% 30.12 in 5 mi NNW 5.8 mph - -   Overcast